Location: Lombard
(41.8800°N, 88.0080°W)
Time: 12:08:17
(UTC-05:00)

A-11 Canister half - Pass Details

Date: 30 January 2023
Orbit: 1512 x 1687 km, 47.2° (Epoch: 20 March)

Event Time Altitude Azimuth Distance (km) Brightness Sun altitude
Rises 20:06:29 0° 290° (WNW) 4,663 12.5 -34.0°
Reaches altitude 10° 20:10:45 10° 273° (W) 3,671 11.8 -34.7°
Maximum altitude 20:16:22 18° 234° (SW) 3,076 10.9 -35.8°
Drops below altitude 10° 20:22:01 10° 196° (SSW) 3,677 11.0 -36.8°
Sets 20:26:21 0° 178° (S) 4,675 11.4 -37.6°
Enters shadow 20:26:28 - 178° (S) 4,707 11.5 -37.6°
